Location: Caltech
(34.1382°N, 118.1253°W)
Time: 02:39:02
(UTC-07:00)

Iridium 18 - Visible Passes

Search period start: 27 July 2016 00:00
Search period end: 06 August 2016 00:00
Orbit: 776 x 779 km, 86.4° (Epoch: 26 July)

Date Brightness Start Highest point End Pass type
(mag) Time Alt. Az. Time Alt. Az. Time Alt. Az.
27 Jul 7.2 02:00:36 10° NNE 02:04:08 27° ENE 02:04:08 27° ENE visible
27 Jul 7.0 03:41:28 10° NNW 03:44:35 23° WNW 03:44:35 23° WNW visible
28 Jul 7.9 01:28:20 10° NE 01:30:25 15° ENE 01:30:25 15° ENE visible
28 Jul 6.5 03:07:19 10° NNW 03:10:53 38° NW 03:10:53 38° NW visible
29 Jul 6.5 02:33:38 10° N 02:37:10 44° N 02:37:10 44° N visible
30 Jul 7.1 02:00:20 10° NNE 02:03:29 32° NE 02:03:29 32° NE visible
30 Jul 7.5 03:42:20 10° NW 03:43:56 15° WNW 03:43:56 15° WNW visible
31 Jul 7.7 01:27:32 10° NNE 01:29:49 19° NE 01:29:49 19° NE visible
31 Jul 7.1 03:07:43 10° NNW 03:10:16 24° NW 03:10:16 24° NW visible
01 Aug 8.3 00:56:00 10° NE 00:56:08 10° ENE 00:56:08 10° ENE visible
01 Aug 6.9 02:33:47 10° N 02:36:35 32° NNW 02:36:35 32° NNW visible
02 Aug 7.2 02:00:14 10° N 02:02:57 31° NNE 02:02:57 31° NNE visible
03 Aug 7.6 01:27:06 10° NNE 01:29:18 22° NE 01:29:18 22° NE visible
03 Aug 7.6 03:08:20 10° NNW 03:09:45 16° NW 03:09:45 16° NW visible
04 Aug 8.1 00:54:36 10° NE 00:55:39 13° NE 00:55:39 13° NE visible
04 Aug 7.4 02:34:04 10° NNW 02:36:07 23° NNW 02:36:07 23° NNW visible
05 Aug 7.4 02:00:17 10° N 02:02:29 26° N 02:02:29 26° N visible
